TimeCDT,TemperatureF,Dew PointF,Humidity,Sea Level PressureIn,VisibilityMPH,Wind Direction,Wind SpeedMPH,Gust SpeedMPH,PrecipitationIn,Events,Conditions,WindDirDegrees,DateUTC
12:53 AM,80.1,71.1,74,29.93,10.0,SSE,12.7,-,N/A,,Clear,160,2013-06-21 05:53:00
1:53 AM,78.1,71.1,79,29.92,10.0,SSE,9.2,-,N/A,,Clear,160,2013-06-21 06:53:00
2:53 AM,79.0,71.1,77,29.91,10.0,South,10.4,-,N/A,,Clear,180,2013-06-21 07:53:00
3:53 AM,80.1,71.1,74,29.90,10.0,South,15.0,20.7,N/A,,Clear,190,2013-06-21 08:53:00
4:53 AM,79.0,70.0,74,29.88,10.0,South,13.8,-,N/A,,Clear,190,2013-06-21 09:53:00
5:53 AM,79.0,70.0,74,29.88,10.0,South,15.0,24.2,N/A,,Clear,190,2013-06-21 10:53:00
6:53 AM,79.0,70.0,74,29.91,10.0,South,12.7,-,N/A,,Clear,180,2013-06-21 11:53:00
7:53 AM,80.1,70.0,71,29.89,10.0,South,18.4,24.2,N/A,,Clear,190,2013-06-21 12:53:00
8:53 AM,81.0,70.0,69,29.91,10.0,South,16.1,21.9,N/A,,Clear,190,2013-06-21 13:53:00
9:53 AM,81.0,70.0,69,29.90,10.0,South,21.9,26.5,N/A,,Clear,190,2013-06-21 14:53:00
10:53 AM,81.0,70.0,69,29.91,10.0,South,13.8,-,N/A,,Clear,180,2013-06-21 15:53:00
11:53 AM,84.0,71.1,65,29.91,10.0,South,13.8,-,N/A,,Clear,190,2013-06-21 16:53:00
12:53 PM,84.9,70.0,61,29.91,10.0,SSW,15.0,-,N/A,,Clear,200,2013-06-21 17:53:00
1:53 PM,87.1,71.1,59,29.88,10.0,South,18.4,24.2,N/A,,Clear,170,2013-06-21 18:53:00
2:53 PM,93.0,72.0,50,29.86,10.0,SSW,23.0,31.1,N/A,,Clear,200,2013-06-21 19:53:00
3:53 PM,95.0,70.0,44,29.86,10.0,SSW,17.3,27.6,N/A,,Clear,200,2013-06-21 20:53:00
4:53 PM,93.9,68.0,43,29.85,10.0,SSW,23.0,31.1,N/A,,Clear,210,2013-06-21 21:53:00
5:53 PM,91.9,71.1,50,29.85,10.0,South,16.1,25.3,N/A,,Clear,180,2013-06-21 22:53:00
6:53 PM,91.0,69.1,48,29.85,10.0,South,18.4,28.8,N/A,,Clear,180,2013-06-21 23:53:00
7:53 PM,88.0,70.0,55,29.86,10.0,South,16.1,-,N/A,,Clear,180,2013-06-22 00:53:00
8:53 PM,86.0,69.1,57,29.88,10.0,South,13.8,-,N/A,,Clear,180,2013-06-22 01:53:00
9:53 PM,84.9,69.1,59,29.87,10.0,South,11.5,-,N/A,,Clear,180,2013-06-22 02:53:00
10:53 PM,82.9,69.1,63,29.90,10.0,South,13.8,-,N/A,,Clear,190,2013-06-22 03:53:00
11:53 PM,82.0,68.0,62,29.90,10.0,South,11.5,-,N/A,,Clear,180,2013-06-22 04:53:00